[[{"header":{"parameterUnit":"m.s-1","parameterCategory":1,"la1":30.2991,"la2":30.254,"lo1":-89.0895,"lo2":-89.0444,"dy":0.0017,"dx":0.0017,"nx":28,"ny":28,"refTime":"2023-10-06T21:00:00:Z","depth":0,"parameterNumber":2,"parameterNumberName":"U-component_of_WINDS"},"data":[0,0,0,0,0,0,0,0,0,0,0,0,0,0,0,0,0,0,0,0,0,0,0,0,0,0,0,0,0,0,0,0,0,0,0,0,0,0,0,0,0,0,0,0,0,0,0,0,0,0,0,0,0,0,0,0,0,0,-1.6333,-1.6334,0,-1.6391,-1.6392,-1.6393,-1.6341,-1.6339,-1.6337,-1.6335,-1.6393,-1.6397,-1.64,0,0,0,0,0,0,0,0,0,0,0,0,0,-1.6176,-1.6179,-1.6333,-1.6334,-1.6335,-1.6391,-1.6392,-1.6393,-1.6342,-1.6339,-1.6337,-1.6334,-1.6392,-1.6396,-1.64,0,0,0,0,0,0,0,0,0,0,0,0,0,-1.624,-1.618,-1.6333,-1.6316,-1.6315,-1.6391,-1.6392,-1.6393,-1.6342,-1.6339,-1.6336,-1.6333,-1.6391,-1.6396,-1.6401,-1.6496,0,0,-1.6417,-1.6419,0,0,0,0,0,0,0,0,-1.6237,-1.6246,-1.6318,-1.6318,-1.6317,-1.6356,-1.6358,-1.6427,-1.6343,-1.6332,-1.6335,-1.6332,-1.6383,-1.6389,-1.6407,-1.6499,-1.6501,-1.6417,-1.6421,-1.6423,-1.6424,0,0,0,0,0,0,0,-1.6232,-1.6243,-1.6356,-1.6319,-1.6318,-1.6305,-1.631,-1.6371,-1.6374,-1.6333,-1.6329,-1.6337,-1.6382,-1.6402,-1.6408,-1.6502,-1.6417,-1.6422,-1.6425,-1.6427,-1.6673,-1.6677,0,0,0,0,0,0,-1.623,-1.624,-1.6354,-1.6358,-1.6268,-1.631,-1.6316,-1.6346,-1.6374,-1.6375,-1.6339,-1.6334,-1.6394,-1.6402,-1.6409,-1.6522,-1.6423,-1.6428,-1.6431,-1.667,-1.6674,-1.6678,0,0,0,0,0,0,-1.6227,-1.6241,-1.6352,-1.6298,-1.6311,-1.6316,-1.635,-1.6349,-1.6369,-1.6379,-1.6379,-1.6359,-1.6392,-1.6402,-1.6475,-1.6524,-1.643,-1.6435,-1.6666,-1.6671,-1.6676,-1.6749,0,0,0,0,0,0,-1.6222,-1.624,-1.6277,-1.6299,-1.6314,-1.6418,-1.6353,-1.6353,-1.6378,-1.6372,-1.6397,-1.6398,-1.639,-1.6467,-1.648,-1.6529,-1.6439,-1.6662,-1.6668,-1.6674,-1.6742,-1.6756,-1.6768,0,0,0,0,0,-1.6217,-1.6295,-1.6279,-1.6293,-1.6361,-1.642,-1.6429,-1.6419,-1.6382,-1.6419,-1.6425,-1.6397,-1.6516,-1.6475,-1.6489,-1.654,-1.6659,-1.6667,-1.6674,-1.6737,-1.6753,-1.6767,0,0,0,0,0,0,-1.6278,-1.6298,-1.628,-1.6368,-1.6393,-1.6412,-1.6458,-1.6437,-1.6473,-1.6465,-1.645,-1.6457,-1.6533,-1.6544,-1.6498,-1.6633,-1.6581,-1.6592,-1.6624,-1.664,-1.6652,-1.6649,-1.6443,0,0,0,0,0,-1.6302,-1.6349,-1.6363,-1.6439,-1.6453,-1.6453,-1.6479,-1.6469,-1.6494,-1.6504,-1.6516,-1.6541,-1.6583,-1.6612,-1.6652,-1.6743,-1.6747,-1.6785,-1.6797,-1.6808,-1.6818,-1.6866,-1.6883,-1.6703,-1.6703,-1.6703,0,0,-1.6351,-1.6368,-1.6399,-1.6452,-1.647,-1.6519,-1.6463,-1.6517,-1.6553,-1.6512,-1.6582,-1.6591,-1.6617,-1.67,-1.6736,-1.6711,-1.6868,-1.6817,-1.6826,-1.683,-1.6875,-1.6892,-1.6908,-1.6708,-1.6707,-1.6706,0,0,-1.6467,-1.6484,-1.6549,-1.6568,-1.6597,-1.6596,-1.6611,-1.6633,-1.6638,-1.6707,-1.6678,-1.6719,-1.6793,-1.6813,-1.6833,-1.6954,-1.693,-1.6967,-1.7034,-1.7081,-1.7095,-1.7108,-1.7151,-1.7167,-1.6976,-1.6977,-1.6977,0,-1.6525,-1.6598,-1.6585,-1.6642,-1.6666,-1.6631,-1.6696,-1.6715,-1.6754,-1.6771,-1.6742,-1.6833,-1.6848,-1.6934,-1.6964,-1.6981,-1.6998,-1.6965,-1.7094,-1.7107,-1.7118,-1.7159,-1.7175,-1.6981,-1.6981,-1.698,-1.698,0,-1.6668,-1.6719,-1.6768,-1.6808,-1.6837,-1.6897,-1.6892,-1.6923,-1.691,-1.6912,-1.6982,-1.6999,-1.7041,-1.706,-1.7048,-1.7145,-1.7128,-1.7096,-1.7044,-1.714,-1.7178,-1.7194,-1.6987,-1.6986,-1.6985,-1.6983,0,0,-1.6826,-1.6856,-1.6875,-1.6892,-1.6919,-1.6958,-1.7016,-1.7057,-1.7084,-1.7112,-1.716,-1.7222,-1.7193,-1.7215,-1.7204,-1.7246,-1.734,-1.7209,-1.7209,-1.7233,-1.7447,-1.7471,-1.749,-1.7323,-1.7326,-1.7328,-1.7445,0,-1.6943,-1.7046,-1.7035,-1.7131,-1.7178,-1.7144,-1.7194,-1.7216,-1.7219,-1.7258,-1.726,-1.7305,-1.7263,-1.7277,-1.7316,-1.732,-1.7383,-1.7311,-1.7367,-1.737,-1.7363,-1.751,-1.7536,-1.7645,-1.746,-1.7462,-1.7464,0,-1.7095,-1.7128,-1.723,-1.7249,-1.7268,-1.7314,-1.735,-1.7388,-1.7411,-1.741,-1.7434,-1.7415,-1.7472,-1.7418,-1.7496,-1.7447,-1.7469,-1.7474,-1.7478,-1.7484,-1.7424,-1.752,-1.768,-1.7696,-1.7487,-1.7485,-1.7484,0,-1.72,-1.727,-1.734,-1.7355,-1.738,-1.7412,-1.7424,-1.7444,-1.7469,-1.75,-1.7516,-1.7553,-1.7574,-1.7603,-1.7594,-1.7555,-1.7674,-1.7618,-1.7674,-1.7675,-1.7702,-1.7701,-1.7868,-1.7715,-1.7714,-1.7714,-1.7714,0,-1.7333,-1.7397,-1.7388,-1.7431,-1.7501,-1.7486,-1.7555,-1.7562,-1.758,-1.7623,-1.7595,-1.7636,-1.7621,-1.766,-1.7653,-1.7719,-1.7728,-1.7728,-1.7726,-1.7732,-1.7732,-1.7747,-1.774,-1.7718,-1.7717,-1.7716,-1.7716,0,-1.7464,-1.7461,-1.7535,-1.7551,-1.7556,-1.7607,-1.762,-1.766,-1.766,-1.7714,-1.7726,-1.7726,-1.7771,-1.7764,-1.7814,-1.7809,-1.7891,-1.7879,-1.7884,-1.7881,-1.7938,-1.7933,-1.8121,-1.8145,-1.7975,-1.7977,-1.7978,0,-1.755,-1.7598,-1.7619,-1.7646,-1.766,-1.7704,-1.7729,-1.7716,-1.7743,-1.7772,-1.7808,-1.785,-1.7884,-1.7957,-1.796,-1.7998,-1.7987,-1.805,-1.7992,-1.7996,-1.7988,-1.7986,-1.7991,-1.8062,-1.8064,-1.8066,-1.8067,0,-1.7703,-1.7698,-1.7736,-1.7774,-1.7805,-1.7833,-1.7859,-1.7882,-1.7871,-1.7903,-1.7949,-1.7974,-1.8025,-1.8067,-1.8101,-1.8112,-1.8088,-1.8085,-1.81,-1.8107,-1.8108,-1.8109,-1.7916,-1.8081,-1.808,-1.8079,-1.8078,-1.8077,-1.7814,-1.7855,-1.7876,-1.7919,-1.7937,-1.7961,-1.7999,-1.8003,-1.8041,-1.8082,-1.8071,-1.8122,-1.8142,-1.8186,-1.82,-1.8239,-1.8216,-1.8238,-1.8243,-1.8249,-1.8256,-1.8101,-1.8246,-1.8245,-1.8245,-1.8244,-1.8244,0,-1.7966,-1.7977,-1.8017,-1.8054,-1.8087,-1.8061,-1.8087,-1.8117,-1.8163,-1.8184,-1.8217,-1.8268,-1.8308,-1.8314,-1.8352,-1.8382,-1.8372,-1.8393,-1.8391,-1.8394,-1.8275,-1.8259,-1.84,-1.84,-1.84,-1.84,-1.84,-1.84,-1.8049,-1.8117,-1.8114,-1.819,-1.82,-1.8251,-1.8269,-1.829,-1.8307,-1.8366,-1.8399,-1.8403,-1.8417,-1.8455,-1.849,-1.8491,-1.8506,-1.8532,-1.8528,-1.8417,-1.8402,-1.8387,-1.8372,-1.8535,-1.8535,-1.8643,-1.8644,-1.8645]},{"header":{"parameterUnit":"m.s-1","parameterCategory":1,"la1":30.2991,"la2":30.254,"lo1":-89.0895,"lo2":-89.0444,"dy":0.0017,"dx":0.0017,"nx":28,"ny":28,"refTime":"2023-10-06T21:00:00:Z","depth":0,"parameterNumber":3,"parameterNumberName":"V-component_of_WINDS"},"data":[0,0,0,0,0,0,0,0,0,0,0,0,0,0,0,0,0,0,0,0,0,0,0,0,0,0,0,0,0,0,0,0,0,0,0,0,0,0,0,0,0,0,0,0,0,0,0,0,0,0,0,0,0,0,0,0,0,0,-7.513,-7.5131,0,-7.5264,-7.5265,-7.5267,-7.5153,-7.5148,-7.5144,-7.5139,-7.527,-7.5277,-7.5285,0,0,0,0,0,0,0,0,0,0,0,0,0,-7.4767,-7.4774,-7.5129,-7.5131,-7.5133,-7.5264,-7.5266,-7.5267,-7.5154,-7.5148,-7.5143,-7.5137,-7.5267,-7.5276,-7.5286,0,0,0,0,0,0,0,0,0,0,0,0,0,-7.4915,-7.4777,-7.5129,-7.5092,-7.509,-7.5263,-7.5266,-7.5268,-7.5155,-7.5148,-7.5141,-7.5134,-7.5264,-7.5275,-7.5287,-7.5501,0,0,-7.5323,-7.5328,0,0,0,0,0,0,0,0,-7.4907,-7.4928,-7.5096,-7.5095,-7.5093,-7.5185,-7.5185,-7.5346,-7.5157,-7.513,-7.5139,-7.5131,-7.5247,-7.5259,-7.53,-7.5507,-7.5513,-7.5324,-7.5331,-7.5336,-7.534,0,0,0,0,0,0,0,-7.4897,-7.4922,-7.5182,-7.5099,-7.5097,-7.5066,-7.508,-7.5215,-7.5226,-7.5132,-7.5124,-7.5142,-7.5244,-7.5289,-7.5302,-7.5515,-7.5324,-7.5334,-7.5342,-7.5346,-7.5903,-7.5911,0,0,0,0,0,0,-7.4891,-7.4914,-7.5178,-7.5186,-7.4981,-7.5079,-7.5093,-7.5162,-7.5225,-7.5227,-7.5148,-7.5136,-7.5272,-7.5288,-7.5306,-7.5561,-7.5336,-7.5347,-7.5354,-7.5896,-7.5905,-7.5914,0,0,0,0,0,0,-7.4884,-7.4916,-7.5173,-7.5048,-7.5079,-7.5093,-7.5171,-7.5169,-7.5213,-7.5237,-7.5237,-7.5192,-7.5267,-7.529,-7.5454,-7.5564,-7.5353,-7.5363,-7.5887,-7.5899,-7.5909,-7.6072,0,0,0,0,0,0,-7.4874,-7.4914,-7.4997,-7.5051,-7.5086,-7.5321,-7.5178,-7.5176,-7.5235,-7.5221,-7.5278,-7.5281,-7.5263,-7.5437,-7.5466,-7.5576,-7.5373,-7.5877,-7.5892,-7.5906,-7.6057,-7.6088,-7.6114,0,0,0,0,0,-7.4861,-7.5036,-7.5002,-7.5035,-7.5191,-7.5328,-7.5347,-7.5326,-7.5244,-7.5327,-7.5342,-7.5279,-7.5547,-7.5455,-7.5486,-7.5602,-7.587,-7.5888,-7.5905,-7.6044,-7.6082,-7.6113,0,0,0,0,0,0,-7.4993,-7.5043,-7.5005,-7.5204,-7.5263,-7.5308,-7.5412,-7.5367,-7.5448,-7.5431,-7.5399,-7.5413,-7.5586,-7.561,-7.5506,-7.5812,-7.5695,-7.5719,-7.579,-7.5826,-7.5854,-7.5845,-7.5382,0,0,0,0,0,-7.5045,-7.5155,-7.5191,-7.5362,-7.5394,-7.5399,-7.5457,-7.5436,-7.5495,-7.5518,-7.5545,-7.5602,-7.5699,-7.5764,-7.5854,-7.606,-7.6069,-7.6154,-7.6183,-7.6206,-7.6228,-7.6337,-7.6375,-7.5971,-7.597,-7.597,0,0,-7.5154,-7.5194,-7.5265,-7.539,-7.5433,-7.5545,-7.542,-7.5543,-7.5625,-7.5536,-7.5694,-7.5715,-7.5777,-7.5963,-7.6046,-7.5988,-7.6342,-7.6228,-7.6247,-7.6256,-7.6359,-7.6397,-7.6431,-7.5982,-7.598,-7.5978,0,0,-7.5409,-7.5451,-7.5599,-7.5645,-7.5713,-7.5714,-7.575,-7.5803,-7.5815,-7.5973,-7.5908,-7.6003,-7.6172,-7.6218,-7.6264,-7.6536,-7.6481,-7.6566,-7.6716,-7.6823,-7.6855,-7.6883,-7.6979,-7.7014,-7.6588,-7.6588,-7.6588,0,-7.5534,-7.5703,-7.5679,-7.5808,-7.5864,-7.5791,-7.5938,-7.5983,-7.6076,-7.6116,-7.605,-7.626,-7.6296,-7.6491,-7.6558,-7.6597,-7.6635,-7.656,-7.6852,-7.688,-7.6906,-7.6998,-7.7034,-7.6598,-7.6597,-7.6596,-7.6595,0,-7.5854,-7.5971,-7.6081,-7.6176,-7.6244,-7.6382,-7.6377,-7.6448,-7.6421,-7.6429,-7.6589,-7.6631,-7.6728,-7.6772,-7.6746,-7.6964,-7.6926,-7.6857,-7.6739,-7.6955,-7.704,-7.7075,-7.6612,-7.6609,-7.6606,-7.6603,0,0,-7.6195,-7.6276,-7.6317,-7.6359,-7.6428,-7.6517,-7.665,-7.6748,-7.6809,-7.6875,-7.6985,-7.7129,-7.7066,-7.7118,-7.7096,-7.719,-7.7402,-7.7109,-7.7109,-7.7162,-7.7644,-7.7695,-7.7737,-7.7366,-7.7373,-7.7378,-7.7638,0,-7.6453,-7.6688,-7.6671,-7.6891,-7.6998,-7.693,-7.7045,-7.7099,-7.711,-7.7201,-7.7211,-7.7314,-7.7223,-7.7254,-7.7344,-7.7358,-7.7498,-7.7338,-7.7466,-7.7471,-7.7453,-7.7781,-7.7836,-7.808,-7.7672,-7.7677,-7.7682,0,-7.6786,-7.6866,-7.7099,-7.7152,-7.7196,-7.7301,-7.7388,-7.7477,-7.7535,-7.7536,-7.7595,-7.7557,-7.7688,-7.7568,-7.7747,-7.7639,-7.7689,-7.7704,-7.7713,-7.7724,-7.7589,-7.7801,-7.8158,-7.8194,-7.7734,-7.773,-7.7726,0,-7.7011,-7.7177,-7.7338,-7.7376,-7.7442,-7.7517,-7.7547,-7.7599,-7.7659,-7.7735,-7.7773,-7.7862,-7.7911,-7.798,-7.7966,-7.7879,-7.8149,-7.8027,-7.8152,-7.8152,-7.8211,-7.8208,-7.8581,-7.8245,-7.8244,-7.8244,-7.8243,0,-7.7301,-7.7445,-7.744,-7.7539,-7.7698,-7.7675,-7.7832,-7.7853,-7.79,-7.8,-7.7945,-7.8039,-7.8015,-7.8108,-7.8097,-7.8247,-7.8269,-7.8272,-7.8268,-7.8277,-7.8277,-7.831,-7.8293,-7.8253,-7.8251,-7.8249,-7.8248,0,-7.758,-7.7583,-7.7753,-7.7802,-7.7817,-7.7933,-7.7973,-7.8065,-7.8071,-7.8198,-7.8226,-7.8235,-7.8341,-7.8335,-7.8453,-7.8446,-7.8631,-7.8607,-7.8613,-7.8607,-7.8732,-7.872,-7.914,-7.9193,-7.8822,-7.8826,-7.8829,0,-7.7765,-7.7875,-7.7936,-7.8001,-7.8037,-7.814,-7.8202,-7.8183,-7.8248,-7.8323,-7.8406,-7.8507,-7.8588,-7.876,-7.8775,-7.8866,-7.8842,-7.8983,-7.8855,-7.8862,-7.8844,-7.8838,-7.8848,-7.9008,-7.9012,-7.9016,-7.9018,0,-7.8092,-7.8088,-7.818,-7.8274,-7.8349,-7.842,-7.8485,-7.854,-7.8527,-7.8603,-7.8713,-7.8775,-7.8898,-7.8999,-7.9085,-7.9112,-7.9064,-7.9059,-7.9092,-7.9103,-7.9102,-7.9104,-7.8681,-7.9049,-7.9046,-7.9044,-7.9042,-7.9041,-7.8329,-7.8424,-7.8483,-7.8586,-7.8634,-7.8696,-7.8785,-7.8804,-7.8895,-7.8995,-7.8977,-7.91,-7.9153,-7.9265,-7.9301,-7.9395,-7.9344,-7.9393,-7.9405,-7.9417,-7.9432,-7.9088,-7.941,-7.9409,-7.9408,-7.9408,-7.9407,0,-7.8654,-7.8688,-7.8784,-7.8879,-7.896,-7.8909,-7.8978,-7.9049,-7.9159,-7.9214,-7.9295,-7.942,-7.9518,-7.9541,-7.9634,-7.9705,-7.9684,-7.973,-7.9724,-7.9731,-7.9472,-7.9433,-7.9744,-7.9744,-7.9744,-7.9744,-7.9744,-7.9744,-7.8832,-7.899,-7.8992,-7.9172,-7.9204,-7.9326,-7.937,-7.9426,-7.947,-7.9613,-7.9695,-7.9711,-7.9753,-7.9849,-7.9935,-7.9939,-7.9976,-8.003,-8.0026,-7.9783,-7.9749,-7.9717,-7.9681,-8.0039,-8.0039,-8.0277,-8.0279,-8.0281]}]]